Wind_Speed
15 15 15 15 15 15 16 16 16 16 16 17 17 18 18 19 19 20 20 19 19 19 19 20 20 21 21 21 20 19 18 18 18 22 27 23 17 16 16 14 14 15 15 17 19 17 14 13 10 8 7 5 4 5 4 5 7 4 3 2 1 4 6 8 9 8 6 7 11 14 16 13 9 11 12 12 16 20 13 8 12 3 8 18 16 28 31 26
15 16 16 16 16 16 16 16 17 17 17 17 17 18 18 19 19 20 20 20 19 19 19 20 20 20 21 21 22 21 20 19 21 26 26 19 17 18 17 15 16 18 18 18 19 17 14 12 10 7 5 4 3 3 3 4 7 4 3 2 3 5 5 10 13 10 10 12 14 15 18 15 10 17 18 12 12 13 10 10 12 12 16 17 21 32 29 27
15 16 16 17 16 16 16 17 17 17 18 18 18 18 18 19 19 20 20 21 20 19 19 20 21 21 21 21 22 23 21 21 23 23 16 11 13 14 15 16 17 20 21 20 18 16 13 10 9 8 5 3 3 2 2 4 6 4 4 2 5 6 4 10 19 17 19 22 17 16 19 12 11 20 18 13 12 9 8 11 15 19 21 22 29 32 29 29
16 16 17 17 18 18 17 18 18 18 19 18 19 18 18 19 19 20 20 21 21 20 19 19 20 21 21 21 21 21 21 20 17 10 2 2 5 7 10 12 15 20 23 21 18 14 11 10 9 8 4 2 2 3 3 4 5 3 5 4 5 7 4 11 25 22 22 28 23 19 17 11 14 18 18 19 12 2 10 18 20 24 29 31 34 32 30 29
16 17 17 18 18 19 18 18 18 19 19 19 20 19 19 19 19 20 20 21 22 21 20 19 20 20 21 21 20 20 17 12 3 4 2 4 7 8 9 10 13 19 23 23 19 14 11 11 8 6 5 2 2 2 3 6 6 2 5 7 7 9 4 12 26 24 24 27 23 21 15 15 18 15 21 24 11 7 18 24 23 27 34 35 35 33 31 29
17 17 18 18 18 19 19 19 19 19 20 20 20 20 20 19 19 20 20 21 22 22 21 20 20 19 21 20 20 19 11 5 5 1 9 12 12 12 11 12 14 18 24 24 20 15 12 10 8 7 6 2 3 3 4 6 7 3 6 7 11 12 8 15 25 26 29 25 20 20 17 21 18 10 22 22 5 10 21 25 25 29 34 34 34 32 31 30
19 19 19 19 19 20 20 20 21 20 21 21 22 21 21 21 20 20 20 21 22 23 22 21 21 19 20 20 21 17 10 15 14 9 16 15 13 13 12 13 14 18 25 26 22 16 13 10 10 10 7 2 3 4 4 5 8 6 5 5 11 16 15 23 27 29 33 29 25 24 21 23 17 10 21 15 4 7 19 23 27 32 34 33 33 32 31 31
19 19 20 20 20 21 21 21 21 22 22 22 22 22 22 22 22 21 21 21 22 23 23 22 22 20 20 19 18 15 16 22 16 9 12 13 12 11 11 12 13 19 25 27 24 17 13 11 12 11 5 2 3 4 2 4 6 6 6 5 8 14 21 29 30 31 30 26 26 25 20 19 16 16 18 8 2 12 21 25 30 34 34 33 34 32 31 30
20 20 20 20 20 21 21 21 22 22 23 23 23 23 23 23 23 23 22 22 22 22 23 23 23 22 20 19 14 12 18 18 10 7 9 9 9 9 9 9 12 20 24 26 22 17 13 11 12 10 4 3 4 3 1 2 2 4 6 5 9 14 23 30 28 28 26 23 26 21 12 11 13 15 9 5 11 19 24 28 33 34 34 33 33 32 32 30
21 20 20 21 21 21 21 22 22 23 23 24 23 23 24 24 24 23 23 23 23 23 23 23 23 21 19 18 9 6 15 14 10 11 10 10 8 7 5 4 11 19 23 23 20 17 13 10 10 9 4 4 3 2 1 0 5 4 5 8 12 17 22 28 25 24 23 22 28 21 7 11 17 12 4 9 19 23 27 31 33 34 34 33 31 32 31 29
21 21 21 21 21 22 22 22 22 23 23 24 23 24 24 25 25 24 23 23 24 23 23 23 23 22 20 17 10 10 15 16 16 16 15 13 8 7 4 3 9 16 21 19 17 15 12 10 11 9 4 3 2 1 1 4 5 6 18 14 10 16 17 21 22 22 20 14 23 21 9 10 14 5 5 19 25 26 31 32 33 34 33 33 31 31 31 29
21 21 21 21 22 22 22 22 23 23 23 23 23 23 24 25 25 24 23 23 24 23 23 23 22 21 18 17 20 19 17 18 20 20 17 13 9 8 5 5 7 11 15 15 12 10 10 11 11 6 3 3 1 0 4 4 5 14 19 11 5 10 10 13 15 21 19 10 21 23 10 5 7 4 9 25 28 29 32 32 32 33 33 33 31 31 31 29
21 22 21 22 22 22 23 23 23 23 23 23 22 23 23 24 24 24 23 22 24 24 23 22 21 20 15 17 25 23 19 19 20 18 15 12 10 9 7 7 7 8 10 10 9 7 7 10 10 5 2 3 1 1 4 4 11 9 9 8 6 7 4 7 9 17 14 13 29 22 4 6 7 4 16 27 30 30 29 29 31 31 31 32 31 32 31 30
22 23 22 22 22 22 23 24 24 24 23 23 22 22 22 23 23 23 22 22 21 20 19 17 16 16 12 18 25 21 18 18 16 16 14 12 10 10 9 8 7 7 6 6 7 7 7 7 7 5 3 3 2 1 4 4 6 5 6 4 3 5 6 7 7 12 9 15 29 13 1 8 6 7 22 29 31 32 29 28 29 29 30 31 31 32 31 31
22 23 23 23 23 23 23 24 25 24 24 23 22 22 22 22 22 21 20 17 16 14 13 12 11 11 12 20 23 13 11 11 8 9 11 12 11 10 9 9 8 6 5 6 7 7 6 6 6 5 3 3 2 2 3 3 3 3 6 1 1 3 6 6 7 10 8 15 18 1 1 5 3 10 23 29 31 31 29 27 29 29 30 31 31 32 32 31
21 22 23 23 23 23 23 24 25 25 24 23 23 22 21 22 20 19 17 14 12 11 11 10 9 8 8 13 12 5 5 3 1 4 5 9 11 10 8 8 7 6 8 8 8 9 8 7 6 4 4 4 4 4 4 3 2 2 3 5 4 2 6 5 5 7 5 11 11 2 3 3 1 11 22 27 29 28 25 26 28 29 30 31 32 33 33 32
21 22 23 23 23 23 23 24 25 25 24 23 24 22 21 21 18 15 14 13 12 12 12 10 10 9 10 12 10 6 3 2 3 8 4 5 9 11 10 10 7 7 9 10 9 10 10 8 6 4 2 3 3 5 5 3 3 2 2 4 4 3 6 5 3 6 5 8 8 3 4 3 3 14 22 26 28 26 23 24 27 29 30 31 32 33 33 34
23 23 23 24 23 22 22 23 24 24 23 23 24 23 22 18 14 14 14 13 12 10 11 9 6 5 9 12 9 7 6 7 11 12 4 3 7 11 12 12 8 7 10 9 7 9 10 6 5 3 2 3 3 5 5 5 6 7 4 4 4 3 6 7 6 8 10 9 7 4 4 3 4 13 21 26 28 26 24 26 28 29 30 30 32 33 33 34
24 24 24 24 23 22 22 22 23 23 23 21 22 22 19 14 12 12 11 10 10 8 7 6 5 4 10 15 16 15 15 16 17 13 6 3 5 8 12 12 8 7 9 6 4 8 9 3 3 4 3 3 5 6 6 7 9 10 7 5 6 4 6 8 4 6 13 10 6 6 6 6 8 12 17 24 28 26 24 25 26 27 29 30 31 33 34 35
24 24 25 25 24 23 21 22 23 22 22 21 20 18 13 11 8 6 10 17 17 14 14 14 15 18 22 27 28 24 22 20 18 14 7 4 3 4 9 10 6 7 7 5 4 7 9 5 3 6 7 7 9 9 8 7 8 9 7 4 6 5 6 6 3 3 11 9 6 6 5 7 12 12 16 24 25 22 21 21 23 27 28 30 31 32 35 37
24 24 25 25 24 22 21 23 22 20 20 18 17 13 6 7 5 6 17 23 19 17 21 23 23 26 29 28 27 25 21 19 20 17 10 8 6 2 6 9 6 3 4 4 3 5 8 6 6 8 10 10 9 9 7 7 7 7 7 5 6 5 5 5 2 4 8 7 4 5 6 7 10 11 15 20 20 19 24 24 24 28 29 31 32 33 36 37
24 24 25 25 25 22 21 22 21 20 17 11 12 7 4 7 5 8 14 16 22 25 25 24 24 29 30 26 27 24 15 11 19 21 13 10 9 5 7 7 5 4 3 2 3 4 5 5 9 9 8 8 6 6 8 7 6 5 4 5 5 5 4 3 2 4 5 3 3 4 6 4 4 8 12 18 20 23 29 29 27 30 29 30 33 34 36 36
25 25 25 26 26 23 20 20 21 18 11 8 10 3 2 5 6 10 10 11 22 25 21 20 23 29 29 26 26 21 14 10 14 22 16 10 11 11 10 6 5 5 2 3 5 6 4 6 8 7 7 8 5 4 8 6 4 4 4 5 3 4 5 3 3 6 3 1 2 5 3 2 0 4 8 17 23 21 24 27 26 29 31 34 37 38 38 36
24 25 26 26 27 24 20 21 20 12 7 11 9 2 0 7 9 13 11 8 12 15 17 17 17 24 26 22 18 16 19 16 15 19 19 13 13 12 10 7 6 5 4 6 7 7 5 6 7 9 7 9 6 4 7 6 3 3 4 6 3 4 7 5 4 5 2 3 2 6 4 5 3 7 7 13 18 16 18 23 24 28 32 35 35 35 37 38
24 25 26 26 27 25 22 19 13 8 11 12 2 5 3 9 12 15 8 3 7 9 10 8 9 14 14 12 11 15 17 16 19 20 17 16 15 9 7 8 7 5 6 6 6 6 7 5 8 10 6 8 7 5 6 7 4 3 5 7 7 7 7 8 10 8 3 2 3 5 2 5 4 8 9 8 10 13 15 19 23 28 31 31 30 32 36 37
24 24 26 26 27 27 22 14 10 13 15 7 2 2 7 9 13 13 4 2 5 5 2 2 4 3 3 6 12 12 6 9 18 21 17 16 17 12 6 5 4 4 7 6 3 3 5 5 8 8 7 8 7 5 6 8 6 3 6 9 9 8 8 11 13 9 4 4 5 6 5 4 4 7 10 9 9 13 13 14 20 27 30 30 31 34 36 37
24 23 25 26 26 27 24 17 15 17 12 2 3 6 9 9 11 8 2 4 4 4 1 2 3 2 3 6 15 12 1 5 11 17 20 16 17 18 10 3 3 3 5 5 2 3 4 7 7 6 7 6 6 5 6 8 8 4 6 9 10 8 9 12 12 8 5 2 1 4 4 1 4 6 8 10 9 11 13 14 16 24 31 33 35 36 37 39
24 22 24 25 24 25 25 22 19 16 10 6 8 7 7 9 8 2 3 2 4 2 0 2 3 3 3 6 19 15 3 3 5 12 22 19 16 15 9 6 7 5 5 6 4 5 4 8 8 8 6 4 5 6 8 10 6 6 5 9 9 8 9 11 10 7 4 4 1 4 3 1 5 6 2 9 10 11 16 18 17 23 31 34 37 39 39 41
24 22 23 26 25 23 25 23 18 14 11 8 6 5 7 7 4 2 4 1 4 2 1 1 3 4 1 6 16 15 6 3 3 8 19 20 18 13 6 9 10 7 6 6 6 5 3 8 10 10 6 5 6 5 9 12 6 5 6 7 5 5 5 6 7 4 4 4 6 7 6 4 5 5 2 6 8 12 16 17 17 24 32 35 38 40 41 42
25 23 23 26 26 25 25 22 15 13 12 8 5 6 6 2 3 3 2 2 3 3 2 1 3 3 2 4 5 9 7 6 2 7 13 15 18 14 7 10 10 6 3 3 5 6 4 5 7 7 6 8 8 5 9 13 8 6 8 7 6 6 4 2 2 4 4 2 7 10 12 8 5 5 4 6 10 16 17 14 15 21 28 34 39 42 43 43
26 24 23 25 26 26 27 22 15 13 12 9 9 6 1 2 3 3 4 3 3 4 2 1 2 3 2 2 2 5 4 5 3 5 6 5 10 8 3 5 5 4 2 2 2 4 5 4 3 4 7 8 7 4 6 9 6 7 6 5 4 3 4 4 5 3 4 4 7 9 9 6 6 6 6 11 15 17 16 14 14 18 27 36 40 43 45 45
27 25 24 24 25 26 26 22 16 15 12 9 8 4 3 2 0 3 4 2 2 2 0 1 2 3 3 2 1 4 3 3 3 3 5 4 4 5 5 5 5 3 3 4 3 4 4 5 5 4 5 7 7 4 2 2 1 6 5 6 5 1 2 2 1 1 3 6 6 5 8 3 7 9 9 12 14 14 14 18 20 21 29 37 40 43 44 44
28 27 25 23 24 25 22 18 17 16 12 8 6 1 4 2 4 6 4 2 2 1 1 2 3 3 2 4 2 4 2 4 5 3 4 5 4 6 6 5 7 7 3 4 4 3 3 5 5 3 4 6 9 6 3 2 2 6 6 6 5 3 2 2 3 0 2 6 4 5 9 3 5 7 10 13 17 19 22 28 27 23 30 39 42 43 42 43
29 28 28 24 22 22 18 15 17 17 13 9 4 2 3 4 5 6 6 7 4 3 2 1 6 7 3 1 3 3 1 3 4 4 3 4 4 5 4 3 5 7 4 3 4 4 4 5 6 6 4 6 8 7 7 6 5 6 5 6 6 5 5 4 3 3 4 3 2 3 5 5 4 5 9 12 15 20 27 29 22 17 25 35 37 37 38 42
30 28 27 24 19 17 14 12 13 14 14 11 5 2 5 6 3 3 5 6 2 4 4 4 6 7 4 2 3 1 1 3 1 4 3 4 5 5 5 5 6 5 5 4 3 3 5 7 7 6 5 6 7 6 8 8 4 5 3 5 5 7 6 3 4 6 5 2 1 2 3 5 5 6 7 4 5 12 21 21 16 18 23 27 30 32 36 40
32 28 25 22 16 12 10 10 10 12 14 14 6 3 6 4 3 4 3 3 2 0 3 5 2 2 4 3 3 3 3 2 2 1 2 4 4 5 5 5 7 8 7 6 3 2 4 6 6 5 5 6 8 8 8 7 5 2 3 4 5 6 7 4 2 1 3 2 2 2 3 3 2 7 9 4 5 9 12 12 16 20 20 23 29 33 36 39
33 31 26 18 13 12 11 11 11 11 17 14 5 6 5 3 5 5 2 1 1 1 3 2 1 2 2 2 2 3 4 4 3 2 1 2 3 5 5 4 6 10 10 8 4 2 4 4 6 6 8 9 11 10 6 7 8 5 4 7 3 3 3 3 2 2 3 2 4 2 5 4 2 4 7 4 7 12 12 11 12 13 16 23 30 35 37 41
34 32 23 15 15 16 14 13 10 14 19 10 5 5 3 4 6 5 3 1 1 2 3 1 2 2 1 1 2 2 4 4 3 2 1 2 3 5 7 5 6 11 13 12 6 3 5 3 7 6 9 6 6 8 6 7 6 3 4 6 5 3 1 1 3 2 1 3 3 3 4 4 5 5 5 5 11 15 15 12 8 9 16 24 30 34 38 41
31 25 16 13 16 14 10 8 11 20 15 5 6 5 3 5 5 5 6 2 2 2 1 3 3 1 1 2 3 2 2 1 2 1 1 2 3 4 6 6 6 9 14 13 7 3 5 4 5 4 6 3 3 6 7 8 3 3 3 4 2 3 5 3 3 4 4 4 3 2 2 3 6 7 8 11 14 15 14 12 9 11 19 28 32 34 38 41
25 15 7 9 14 12 5 6 15 16 7 3 6 4 3 4 5 9 12 7 2 3 3 3 4 3 3 2 4 3 1 3 3 1 2 3 2 4 5 6 4 6 12 14 9 4 3 4 5 4 2 2 2 5 9 8 5 3 3 4 2 1 3 2 1 3 4 4 4 3 3 5 7 6 10 14 14 14 15 13 11 14 23 32 34 33 37 41
21 8 3 4 9 12 10 4 7 6 2 3 4 3 3 3 3 7 11 9 6 5 5 4 4 4 2 2 2 2 1 2 3 3 2 3 3 4 5 8 6 4 7 8 7 6 3 4 5 4 2 4 6 7 7 9 9 8 6 6 6 4 3 2 4 1 2 3 5 5 4 7 7 6 10 14 12 11 13 13 12 17 26 31 31 32 37 41
14 4 6 9 12 15 11 3 3 2 2 2 2 3 4 4 3 4 6 5 5 6 6 4 4 4 3 3 4 3 3 3 4 4 4 5 6 4 7 11 10 7 6 6 9 10 6 4 4 6 5 6 9 7 5 8 7 6 6 6 7 6 6 6 6 3 1 1 2 4 3 6 7 6 9 10 8 8 11 11 12 18 24 25 27 31 35 39
11 11 13 9 13 14 6 2 3 2 3 4 5 4 5 3 2 3 3 2 3 4 4 3 4 5 5 5 5 5 5 4 5 7 5 4 5 8 14 17 12 7 6 5 7 8 5 3 5 5 4 4 7 5 1 3 4 3 4 4 6 7 7 7 5 4 4 3 3 2 3 6 6 4 5 7 6 8 12 16 18 20 20 20 23 29 33 37
16 19 14 3 4 6 3 2 3 3 3 5 5 5 7 6 3 4 4 2 3 3 2 3 5 5 5 5 5 6 6 4 4 5 4 4 4 8 16 17 11 5 7 8 7 8 5 2 4 4 3 4 5 5 4 3 3 4 4 4 6 7 6 3 2 3 5 6 7 5 4 6 6 4 3 5 6 6 10 17 21 21 19 20 23 28 33 36
14 13 8 2 2 5 6 1 0 2 3 3 4 4 5 5 6 9 10 6 6 6 3 4 6 6 5 5 5 7 7 5 3 3 2 3 4 7 9 11 8 5 12 17 16 14 8 4 5 7 6 6 7 6 6 5 3 3 3 6 8 9 10 5 2 4 6 5 6 6 5 6 7 6 5 6 6 6 9 13 18 21 22 22 25 30 34 37
7 4 5 6 5 3 5 1 4 2 3 3 3 4 3 2 4 10 11 8 10 10 6 6 7 5 5 6 6 7 7 6 5 3 3 3 3 4 6 13 10 6 10 14 16 12 3 3 7 10 11 10 9 9 7 5 5 5 6 8 9 9 11 8 5 6 6 4 4 6 6 6 7 7 8 8 6 7 8 8 14 22 25 26 29 33 34 35
2 1 2 5 6 3 1 3 7 4 3 3 2 3 3 3 2 5 6 6 8 8 5 6 7 6 5 6 5 6 6 6 6 6 7 6 4 4 9 13 8 4 8 5 17 11 2 4 8 10 14 15 14 13 9 7 7 8 9 10 10 9 11 10 7 7 7 6 5 8 6 8 9 9 10 10 8 7 7 9 16 24 27 28 28 28 28 30
3 3 4 3 3 2 1 5 7 5 4 3 2 3 3 3 2 2 3 4 5 4 4 3 7 9 9 8 6 5 6 6 7 7 6 6 4 3 7 9 5 3 11 1 11 8 3 5 6 8 12 15 14 12 9 8 7 8 9 10 10 9 11 12 11 10 10 8 10 9 9 10 10 10 11 12 11 12 13 18 22 23 23 24 24 26 28 31
4 6 6 5 3 4 7 10 10 7 5 4 4 3 3 4 3 2 2 4 5 4 4 2 5 8 8 8 5 4 5 6 7 7 6 6 3 0 2 5 4 5 10 5 2 2 3 5 5 9 11 14 14 12 9 9 8 7 8 9 9 9 12 13 12 10 10 10 10 8 12 13 10 11 13 14 14 14 13 15 19 19 22 25 26 29 32 34
4 4 6 7 6 9 11 9 6 5 4 4 3 3 3 3 1 5 5 3 3 3 1 2 6 7 6 7 7 7 9 8 8 7 6 6 4 2 1 3 3 5 8 3 1 1 2 4 2 6 6 10 11 12 10 10 10 11 13 12 9 8 8 9 8 5 5 8 7 4 8 10 9 8 9 8 8 9 8 11 17 20 22 24 26 30 35 36
5 3 4 6 5 6 7 5 3 3 3 3 2 2 5 3 4 8 7 7 8 6 2 3 7 7 5 7 7 7 6 4 6 8 6 6 7 4 5 4 1 4 7 3 1 2 1 2 2 4 2 6 7 9 11 9 8 10 13 13 10 7 6 7 6 6 7 7 6 4 5 9 9 6 4 4 8 10 9 12 17 20 23 26 30 34 35 34
5 2 3 3 4 4 4 4 2 2 2 1 2 4 4 6 7 8 6 6 9 10 4 6 6 5 5 5 4 4 10 12 13 15 12 13 15 8 6 3 0 1 3 3 2 1 2 1 2 2 2 6 7 8 8 5 4 6 9 11 11 9 7 5 4 6 9 8 7 7 8 9 6 6 6 5 7 8 10 16 21 23 27 30 33 34 32 32
Wind_Direction
329 329 329 328 328 327 325 326 326 327 328 327 328 328 328 328 327 326 326 328 330 331 332 332 329 329 327 325 322 318 310 300 295 288 280 273 276 276 261 249 238 230 228 226 227 228 225 226 227 230 237 229 225 218 213 214 193 166 118 114 150 186 191 174 179 178 155 157 163 168 163 150 154 149 128 128 129 132 132 131 153 159 154 161 161 162 160 156
326 326 326 326 325 324 324 323 323 324 324 325 325 325 326 326 326 325 324 324 327 329 331 331 330 329 329 327 325 322 314 307 299 288 282 281 275 259 242 235 230 221 220 224 224 227 230 230 222 211 211 199 215 205 204 208 180 158 105 133 218 198 192 176 173 168 157 160 161 164 163 162 162 148 142 136 135 133 116 122 137 130 142 154 160 162 161 162
322 322 322 323 322 322 321 320 320 320 321 322 322 323 324 324 325 324 323 322 323 327 329 330 329 329 330 328 327 325 321 315 303 293 289 283 269 251 243 240 233 220 215 219 222 225 225 219 208 193 182 175 204 202 206 209 191 190 132 155 239 199 175 170 172 176 168 159 152 158 163 169 170 155 150 144 142 141 138 149 144 142 150 156 162 166 165 167
319 319 319 320 319 320 319 319 318 317 318 318 319 321 321 322 323 322 322 320 320 323 326 328 327 328 329 328 329 328 327 322 305 293 262 239 279 261 248 246 240 227 214 213 217 217 211 199 194 189 177 160 182 193 210 204 196 187 155 194 226 172 152 174 175 176 167 159 154 155 159 167 170 161 151 143 136 166 188 177 167 160 159 159 164 168 169 172
316 316 316 317 317 317 317 317 316 316 316 315 316 317 318 321 321 320 321 320 319 320 322 325 325 326 327 326 328 328 335 333 288 140 153 244 272 266 255 253 243 228 216 211 211 205 195 187 185 171 155 158 149 160 234 215 186 174 213 222 197 162 158 177 171 168 164 159 152 152 160 167 166 167 161 152 145 205 197 187 179 170 164 163 166 168 171 175
315 315 314 314 315 315 315 315 314 314 313 313 314 314 316 317 318 319 318 319 319 317 320 322 322 324 324 325 323 323 331 295 213 173 305 283 270 269 268 261 241 226 217 210 207 201 194 185 181 162 142 141 148 177 258 234 198 204 255 232 193 181 161 162 163 160 161 157 156 162 166 161 157 170 171 162 165 203 193 187 178 171 167 166 166 168 173 178
316 315 315 314 313 313 312 313 312 312 311 310 311 311 313 314 315 316 315 318 317 317 317 318 319 320 321 322 319 318 294 272 272 294 304 289 269 268 270 262 238 222 214 209 204 197 192 182 175 161 137 117 168 209 263 255 230 219 261 250 195 188 161 156 159 160 163 163 166 163 158 163 162 168 176 181 294 201 183 179 172 167 166 166 168 172 177 181
318 317 316 315 314 313 312 311 311 310 309 308 309 309 311 311 312 312 313 315 315 316 315 315 316 315 318 316 316 314 287 285 292 295 300 291 268 265 270 259 229 216 211 209 205 194 185 170 166 160 146 155 169 204 265 288 246 208 238 243 181 175 157 155 158 161 165 163 162 157 157 173 172 159 169 194 211 168 170 168 165 164 165 168 171 175 180 184
321 319 318 317 316 314 312 311 310 309 308 307 307 307 309 309 309 310 311 312 313 313 312 314 312 311 313 309 314 309 291 295 297 286 307 305 267 257 270 251 219 209 207 206 203 195 181 164 170 172 167 158 161 216 302 352 261 230 226 185 149 151 150 153 155 160 161 158 157 154 156 169 160 146 150 184 161 162 165 162 164 165 167 171 174 178 182 187
322 321 321 319 318 316 314 313 311 309 308 306 306 306 307 306 306 307 308 308 309 308 309 310 307 308 305 301 304 289 291 298 296 291 305 311 280 256 267 236 213 207 204 201 199 197 181 164 168 171 168 150 166 229 146 143 294 277 142 113 124 135 144 151 151 156 155 157 161 155 143 150 152 149 144 172 165 163 161 160 165 168 170 174 177 181 185 189
323 323 323 321 321 319 316 315 313 311 308 306 306 306 306 304 304 305 305 305 304 304 305 304 304 302 297 293 268 255 290 299 300 297 291 298 288 253 244 210 209 207 207 200 197 195 180 166 154 151 157 155 192 221 221 300 303 133 114 82 91 118 133 145 144 152 149 156 165 147 113 140 157 180 180 166 165 166 162 161 167 171 174 178 180 184 189 192
325 324 324 324 323 321 319 318 316 314 311 309 307 307 306 303 302 303 303 302 300 301 300 299 300 295 293 283 263 267 295 299 295 293 284 287 279 252 233 208 204 208 215 209 204 195 174 170 163 161 168 162 192 254 321 343 104 125 112 83 72 95 119 146 142 155 151 155 158 134 94 156 194 242 165 162 164 165 163 163 169 173 177 180 183 187 191 194
325 325 325 324 324 323 322 320 319 317 314 312 310 309 307 303 302 302 302 301 300 301 299 297 294 291 287 271 271 285 300 294 287 280 275 279 266 249 232 217 209 208 217 218 222 212 195 196 196 216 182 156 196 14 330 73 110 107 91 97 113 87 137 175 151 156 148 155 157 140 100 213 229 208 159 163 164 160 161 166 172 175 179 182 186 190 194 196
325 324 324 323 323 323 322 322 321 320 318 317 314 312 308 304 303 303 305 305 303 303 301 298 294 291 274 266 283 298 297 287 277 266 265 268 256 241 235 228 221 216 209 206 213 208 200 193 194 213 198 190 218 10 359 65 97 91 76 69 113 124 185 205 175 154 134 166 167 146 82 209 236 186 164 167 167 163 164 170 175 178 181 185 188 192 197 199
323 323 323 322 322 321 322 322 321 322 323 321 317 315 311 306 305 306 308 305 301 305 306 306 302 293 276 280 291 300 294 285 277 271 261 253 247 238 237 234 232 228 206 196 202 200 183 169 178 191 182 178 162 64 29 35 25 86 104 81 271 153 184 215 208 173 145 177 186 156 56 214 256 180 170 170 171 168 167 173 178 181 183 186 190 194 198 201
322 322 321 321 321 321 321 321 321 323 325 324 321 318 313 309 307 308 305 296 294 305 313 308 302 300 289 292 294 297 310 297 9 338 273 245 238 230 231 232 234 224 204 197 198 192 177 176 187 181 160 146 125 88 64 65 23 340 102 152 195 173 178 204 219 204 161 171 199 239 157 223 268 175 174 173 175 172 171 176 180 184 187 188 192 196 199 202
323 322 320 320 320 321 320 320 320 322 326 327 323 319 316 313 309 307 296 282 284 302 313 298 289 297 278 273 276 278 286 187 331 337 312 246 234 233 237 231 234 228 205 194 194 185 176 179 177 179 151 113 112 95 96 140 171 242 61 129 202 200 181 181 175 201 174 169 200 162 144 221 181 166 173 177 179 177 177 181 184 188 190 192 194 198 202 203
324 322 321 320 320 322 321 320 320 321 326 328 326 324 321 316 309 302 285 272 283 300 308 284 265 294 273 264 265 265 264 267 301 316 303 239 233 237 241 239 244 226 193 180 186 179 177 182 156 151 68 84 117 103 126 192 181 182 164 147 209 234 207 194 177 182 172 180 207 153 150 206 160 161 173 181 182 183 186 186 188 191 193 195 197 200 204 206
324 323 322 319 320 322 322 321 320 322 326 328 330 327 323 316 304 292 269 265 284 289 289 257 221 250 271 277 279 280 287 288 295 301 289 247 231 239 239 236 233 196 170 156 188 180 166 141 109 146 158 155 164 148 168 195 179 177 171 145 168 205 230 209 201 185 167 173 204 183 179 174 163 172 177 182 185 189 194 191 191 194 196 198 199 203 206 209
325 324 322 319 320 321 323 322 321 325 328 330 334 333 334 333 320 296 290 289 283 274 275 265 255 261 268 276 281 284 289 287 287 288 286 256 232 253 230 212 190 175 164 152 187 183 163 153 167 182 182 177 178 176 173 168 160 159 151 146 170 189 241 237 281 230 167 167 203 186 169 171 173 181 181 181 184 193 198 197 196 197 199 201 202 205 208 212
325 325 322 319 319 320 324 321 320 326 329 335 345 350 16 22 12 325 315 305 290 281 282 279 272 268 268 271 272 278 285 287 282 273 269 259 253 259 210 186 147 169 211 177 146 152 162 180 204 197 189 179 177 174 148 130 142 147 153 176 191 189 222 235 262 231 178 166 199 161 154 194 188 183 182 177 182 198 200 198 200 200 202 204 206 208 211 214
326 325 322 319 318 320 324 320 320 326 327 344 360 5 75 58 28 324 316 302 293 293 288 283 274 266 268 268 264 266 269 277 274 266 260 248 235 208 183 164 144 185 238 173 120 133 170 212 216 202 180 153 140 147 135 129 144 142 138 157 199 201 190 216 173 176 187 185 223 166 158 217 208 185 187 184 192 203 202 201 202 201 203 206 209 211 212 215
327 326 322 320 318 320 325 320 320 325 326 349 354 349 96 29 348 321 313 281 292 297 284 275 268 264 266 266 262 253 234 228 253 258 257 230 203 192 174 148 156 182 201 183 162 154 182 237 218 184 151 136 112 126 130 118 136 139 130 141 206 216 170 208 192 157 149 55 179 149 129 316 221 181 207 204 204 206 205 208 209 207 208 209 211 212 213 214
328 326 322 321 317 319 326 322 320 326 330 339 340 208 248 344 328 325 318 270 285 293 283 277 268 265 266 267 262 233 219 222 229 248 255 226 190 181 178 165 154 170 204 197 171 165 215 249 182 147 153 156 137 136 134 129 173 202 177 152 164 206 180 168 151 143 85 11 110 107 56 317 204 183 216 215 211 213 209 210 214 216 216 216 215 215 215 215
329 327 323 322 318 318 325 324 320 328 331 335 323 188 311 334 325 328 329 281 284 284 289 284 260 266 269 265 246 218 215 223 227 237 243 221 199 179 173 174 166 187 203 177 155 184 238 243 149 140 164 163 145 157 166 158 172 227 218 184 177 185 166 132 130 129 105 281 232 126 113 290 241 202 213 205 207 215 210 208 214 217 219 220 219 218 218 218
329 328 324 322 319 318 323 327 319 324 335 347 155 254 317 322 323 326 345 40 302 270 292 274 244 297 299 235 212 201 206 232 233 232 225 218 209 192 171 167 164 191 183 156 148 204 230 199 149 146 159 160 158 181 197 166 143 218 225 193 183 162 139 141 141 137 148 219 217 168 185 267 289 233 213 196 206 214 212 214 215 215 217 218 218 219 219 217
329 328 324 321 321 321 322 323 319 324 338 336 257 300 304 310 322 324 359 23 311 263 266 228 234 350 326 220 183 168 175 238 223 220 210 203 197 190 189 185 151 179 163 137 190 228 196 181 164 154 145 148 166 192 211 161 136 228 221 173 170 149 147 158 151 160 180 134 107 175 171 269 287 251 204 186 204 218 221 225 219 215 216 216 217 219 218 217
326 327 323 318 319 320 316 317 319 326 329 290 277 281 286 305 314 337 76 15 285 276 233 229 277 317 321 193 183 184 221 192 177 211 206 195 187 184 188 190 164 175 175 147 205 249 192 184 180 165 159 166 188 199 189 158 156 238 199 151 160 156 160 166 162 181 165 107 237 237 162 162 269 277 195 175 199 222 226 225 220 214 214 214 216 217 218 219
323 324 322 315 314 313 309 311 317 320 319 302 273 269 291 300 286 95 88 259 287 324 257 266 335 324 44 155 192 212 246 225 172 194 193 189 192 190 193 196 170 167 191 165 195 243 224 199 184 163 170 195 205 203 168 163 195 221 147 107 85 98 128 158 165 161 108 134 217 222 188 197 260 276 179 166 203 224 227 225 220 215 213 213 214 216 218 218
320 322 321 314 312 310 305 308 313 309 307 298 275 285 303 271 154 103 131 236 288 288 259 296 346 335 86 114 218 238 249 270 287 154 168 175 188 194 192 192 173 147 188 172 191 231 268 229 185 164 187 191 190 195 172 178 185 140 113 85 56 49 63 78 87 100 106 201 235 214 194 196 247 263 188 180 207 215 220 226 218 214 213 213 214 215 216 216
318 319 318 314 312 309 304 308 312 300 291 285 283 289 261 161 119 130 202 235 294 276 291 312 313 354 41 104 243 244 231 269 283 138 145 146 171 184 151 170 172 134 176 199 212 273 291 257 219 198 197 172 155 177 193 199 177 118 101 104 93 21 27 37 14 63 137 237 252 218 189 190 240 257 219 212 219 213 212 221 213 204 208 212 213 214 214 215
316 316 314 312 308 302 301 307 304 289 284 283 282 270 158 160 183 189 216 328 322 248 143 240 274 345 349 24 239 227 200 227 243 149 150 140 152 182 173 174 177 160 212 216 225 292 270 237 253 258 218 168 143 152 200 249 130 115 112 111 122 276 18 63 282 127 178 242 255 174 149 183 246 252 239 228 234 228 217 222 218 203 203 209 212 213 213 212
316 315 313 309 306 301 300 299 284 273 275 268 259 228 121 167 225 202 208 262 234 217 98 241 295 335 3 15 320 250 210 209 223 190 164 153 159 201 208 197 171 164 192 195 195 235 273 268 251 240 250 195 161 151 169 217 164 148 148 141 147 155 134 195 234 18 217 254 283 136 148 206 269 263 242 228 233 230 225 228 225 212 206 208 211 211 210 210
315 317 314 311 309 303 296 284 268 261 257 237 211 98 130 208 233 210 210 225 247 340 6 292 328 333 355 12 272 259 281 254 205 157 147 135 157 207 230 236 181 156 137 157 185 186 199 252 224 201 228 195 175 174 164 151 160 178 166 147 158 159 161 196 198 185 208 239 331 111 152 196 219 250 240 230 235 229 231 237 234 227 217 212 213 211 208 209
316 318 316 315 311 297 286 270 260 255 236 203 157 137 189 206 227 209 216 230 272 330 311 329 344 328 320 285 277 358 96 277 224 130 153 152 171 202 198 206 197 158 139 174 214 178 191 240 243 232 225 177 179 188 150 128 160 208 147 126 180 184 164 175 183 181 177 138 88 169 207 220 221 285 290 290 288 238 235 240 231 229 224 210 209 209 207 208
317 319 320 320 309 292 280 259 262 254 210 173 142 210 209 204 200 191 203 199 170 250 328 342 350 268 301 308 316 21 56 304 340 72 190 181 194 206 198 212 196 176 168 178 210 176 180 248 261 240 235 200 186 179 160 163 180 179 147 176 211 177 143 145 201 174 122 159 243 192 224 273 306 303 294 295 298 264 247 236 218 219 212 198 203 207 206 208
322 325 328 324 310 302 287 265 267 235 188 165 172 218 207 219 206 197 203 135 150 121 77 12 278 207 258 307 305 348 15 353 354 11 259 225 222 203 207 238 194 184 189 183 206 207 164 253 268 205 221 236 199 184 197 195 165 134 184 198 173 116 105 116 169 18 68 204 267 199 197 217 167 276 292 267 248 255 255 241 219 205 192 195 204 207 206 208
327 329 332 327 317 310 292 273 252 195 173 166 219 220 199 225 214 206 224 177 83 74 96 169 242 216 207 270 284 321 16 356 336 1 289 244 253 208 192 214 199 193 198 190 209 230 165 240 284 210 205 230 182 178 239 238 184 143 181 174 140 151 206 128 165 174 139 202 268 276 237 224 196 226 271 236 222 235 246 245 224 191 191 200 206 206 205 207
330 332 339 344 336 321 290 252 193 171 162 166 217 218 213 227 238 225 221 218 120 146 186 215 217 257 249 216 253 298 38 279 264 333 232 220 256 228 190 202 217 202 195 186 191 209 167 205 273 238 203 198 129 170 216 232 214 82 116 154 152 166 173 175 166 164 181 198 223 265 271 250 228 219 217 219 219 224 234 238 229 209 203 206 208 205 202 203
336 335 341 8 14 15 28 146 159 163 167 190 199 210 219 228 254 236 227 230 185 180 220 211 198 233 254 241 259 267 187 215 218 184 225 222 254 264 217 202 224 210 195 189 188 189 166 194 237 265 239 188 199 205 201 197 175 140 163 184 193 127 137 183 184 134 152 171 179 197 227 251 245 209 203 217 221 218 219 222 228 222 214 213 212 205 200 202
346 341 292 350 7 5 15 97 162 179 205 205 203 229 241 242 268 252 241 232 219 227 222 207 206 210 227 270 268 264 249 230 212 201 232 228 226 265 231 201 196 188 181 188 201 202 186 184 206 232 223 204 234 232 193 177 171 172 187 188 180 164 136 188 249 247 126 160 175 177 210 256 249 196 200 218 219 220 220 214 222 229 222 217 213 207 203 204
350 326 300 300 289 305 329 328 244 242 204 214 233 233 242 255 257 263 258 223 210 231 224 220 224 208 226 237 215 229 246 235 221 207 217 227 211 219 238 224 208 180 158 187 210 199 173 151 186 215 224 222 238 239 187 175 175 180 203 195 181 176 162 181 221 237 220 207 141 139 198 262 260 205 203 218 220 232 233 223 229 237 231 221 212 208 207 209
333 308 314 300 277 291 314 292 277 275 242 262 281 272 261 265 227 236 261 229 212 223 213 219 212 203 225 218 196 207 212 214 218 203 215 247 216 223 248 250 237 198 168 201 218 196 166 144 183 222 274 269 266 282 236 161 150 185 242 199 172 190 189 186 192 181 191 199 144 137 235 265 274 244 219 227 227 237 237 225 227 236 235 223 212 208 208 211
319 308 311 313 281 286 249 227 261 256 269 280 285 278 261 255 243 234 242 233 218 209 214 238 213 205 221 207 199 211 201 206 235 222 224 229 226 254 262 262 255 208 188 204 187 174 192 191 168 192 250 256 262 286 271 227 175 195 221 186 180 184 163 136 102 159 212 212 169 167 225 250 272 308 295 239 212 227 240 229 229 234 231 219 210 208 210 213
324 312 304 333 306 238 213 216 5 254 298 309 290 277 256 250 242 232 229 230 230 218 215 247 232 220 221 206 213 227 209 198 231 278 275 213 254 283 285 292 290 223 220 218 184 165 186 200 166 181 206 216 216 223 226 213 194 217 207 181 190 181 166 161 127 172 228 231 166 170 210 247 280 300 283 248 205 219 244 232 229 231 227 219 211 210 212 213
331 315 304 330 334 235 216 22 43 11 336 347 306 271 231 232 251 238 228 227 236 226 214 239 240 236 239 226 231 242 230 212 214 255 277 255 269 269 302 319 304 245 250 230 182 153 157 198 188 191 200 208 210 215 212 165 158 207 211 191 194 190 179 170 143 178 202 178 181 212 199 208 254 260 253 250 221 222 237 224 220 222 219 217 214 212 212 211
302 301 335 338 335 329 295 36 41 24 319 322 308 279 254 241 270 257 226 222 242 228 210 231 226 218 225 216 222 238 229 222 224 235 246 247 257 270 309 316 282 266 329 227 173 150 97 212 209 203 208 214 213 211 199 166 172 196 199 198 200 193 178 170 182 199 166 142 231 252 194 186 226 230 229 236 224 219 227 214 215 217 214 212 210 209 210 211
263 308 354 355 311 314 355 343 351 337 294 290 276 277 289 263 260 283 249 267 283 228 193 237 226 217 218 208 210 225 215 222 237 236 229 230 245 289 321 314 270 353 11 18 177 153 141 213 210 201 221 230 226 219 194 177 196 199 191 200 200 186 175 181 202 199 159 171 228 228 182 193 223 223 220 223 211 205 209 208 211 213 211 207 204 203 207 210
272 292 315 331 306 283 292 302 311 305 284 283 265 255 284 272 266 317 309 312 312 249 198 234 245 236 234 224 217 216 203 203 226 234 221 216 222 91 352 311 294 10 25 13 247 129 157 227 208 187 222 239 233 231 205 185 212 225 213 212 204 191 185 192 210 200 179 208 231 196 186 208 221 214 216 223 215 206 203 201 202 206 205 202 199 200 205 210
321 296 310 332 313 287 289 288 291 299 293 277 253 261 308 292 315 352 319 263 274 287 238 256 277 284 267 239 223 219 217 206 213 228 214 205 209 163 178 257 270 346 3 2 303 41 158 248 236 163 215 248 235 231 221 199 210 229 235 234 219 201 195 203 217 193 181 240 254 175 187 226 242 224 218 221 201 184 182 191 198 203 203 198 197 201 205 208
318 277 285 321 305 282 290 290 284 302 296 268 253 331 339 321 345 343 304 234 224 245 292 318 297 303 291 248 222 219 241 246 243 255 255 248 249 201 175 204 217 346 341 327 284 353 158 239 338 98 187 257 234 220 224 210 204 232 247 245 228 206 199 206 206 181 179 209 214 159 186 236 247 228 197 175 167 172 188 195 196 201 200 196 200 205 206 206
331 271 241 290 291 283 299 308 301 271 267 294 4 358 324 297 321 331 299 258 241 235 265 339 321 309 296 265 242 299 313 302 284 280 277 278 286 271 194 187 269 234 283 302 316 328 131 124 3 107 190 265 247 208 201 181 185 243 250 235 221 208 207 217 214 201 191 173 167 187 216 233 226 176 173 191 181 184 205 205 200 198 198 199 204 206 205 205
Height
1522 1521 1520 1519 1518 1517 1516 1514 1513 1512 1511 1510 1509 1507 1506 1505 1503 1502 1501 1500 1499 1498 1497 1496 1494 1493 1491 1490 1488 1487 1486 1485 1483 1481 1478 1476 1478 1479 1479 1480 1482 1482 1483 1483 1485 1486 1488 1489 1490 1491 1491 1492 1492 1492 1492 1493 1493 1494 1500 1508 1512 1515 1513 1508 1509 1510 1508 1510 1511 1512 1514 1515 1517 1518 1519 1521 1523 1523 1525 1527 1527 1528 1528 1531 1532 1534 1536 1538
1521 1520 1519 1518 1517 1516 1515 1513 1512 1511 1510 1509 1508 1506 1505 1504 1502 1501 1499 1499 1498 1497 1496 1495 1493 1492 1490 1489 1488 1486 1484 1483 1481 1478 1475 1475 1476 1475 1476 1478 1479 1480 1480 1481 1482 1484 1486 1488 1489 1490 1490 1491 1491 1491 1492 1492 1492 1494 1501 1508 1509 1507 1503 1498 1501 1502 1502 1506 1508 1511 1514 1515 1515 1515 1517 1521 1524 1524 1525 1527 1527 1529 1529 1531 1533 1535 1537 1538
1520 1519 1518 1517 1516 1515 1514 1512 1511 1510 1509 1508 1506 1505 1504 1503 1501 1500 1498 1497 1496 1496 1495 1494 1492 1490 1489 1488 1487 1485 1483 1481 1477 1474 1473 1473 1473 1473 1474 1475 1476 1477 1478 1479 1481 1483 1484 1486 1487 1488 1489 1490 1491 1491 1491 1491 1491 1492 1498 1507 1503 1497 1497 1495 1498 1499 1499 1502 1506 1511 1513 1515 1516 1515 1516 1519 1523 1524 1525 1526 1526 1527 1529 1530 1533 1535 1537 1538
1519 1518 1517 1516 1515 1514 1513 1511 1510 1509 1507 1506 1505 1504 1503 1502 1500 1499 1497 1496 1495 1494 1494 1493 1491 1490 1488 1487 1486 1484 1482 1479 1474 1471 1472 1471 1472 1472 1472 1473 1474 1475 1476 1478 1479 1481 1483 1485 1486 1487 1488 1489 1490 1490 1490 1490 1491 1491 1495 1501 1495 1491 1495 1495 1496 1498 1500 1501 1504 1509 1513 1515 1517 1517 1516 1516 1523 1526 1524 1523 1523 1523 1526 1528 1531 1534 1536 1538
1518 1516 1515 1515 1513 1512 1511 1510 1509 1507 1506 1505 1504 1502 1501 1500 1499 1498 1496 1495 1493 1493 1492 1492 1490 1489 1487 1486 1485 1483 1483 1482 1473 1470 1471 1470 1470 1470 1471 1472 1472 1473 1474 1476 1477 1479 1481 1483 1485 1486 1487 1488 1489 1490 1489 1488 1489 1492 1491 1490 1488 1489 1494 1494 1494 1498 1501 1503 1504 1508 1511 1513 1515 1516 1515 1514 1519 1521 1518 1520 1522 1523 1525 1527 1530 1533 1535 1537
1516 1515 1514 1513 1512 1511 1510 1508 1507 1506 1505 1503 1502 1501 1500 1499 1498 1496 1495 1493 1492 1491 1490 1490 1489 1488 1486 1485 1484 1482 1485 1482 1471 1469 1470 1469 1469 1469 1469 1470 1470 1471 1472 1474 1476 1478 1480 1482 1483 1485 1486 1487 1489 1490 1488 1486 1487 1492 1490 1484 1485 1487 1490 1492 1494 1497 1500 1503 1504 1506 1509 1511 1514 1516 1515 1514 1514 1514 1514 1518 1521 1524 1526 1528 1531 1533 1535 1537
1515 1514 1513 1511 1510 1509 1508 1507 1506 1504 1503 1502 1500 1499 1498 1497 1496 1495 1493 1492 1491 1489 1489 1488 1487 1486 1485 1484 1482 1481 1481 1476 1470 1470 1469 1468 1468 1467 1468 1468 1468 1469 1470 1472 1474 1476 1479 1480 1482 1483 1485 1488 1489 1487 1486 1486 1485 1490 1489 1483 1484 1485 1487 1490 1493 1496 1498 1499 1501 1504 1508 1510 1511 1514 1515 1515 1514 1514 1515 1519 1521 1525 1527 1529 1531 1533 1535 1536
1513 1512 1511 1510 1508 1507 1506 1505 1504 1503 1501 1500 1499 1498 1497 1495 1494 1493 1492 1491 1489 1488 1487 1486 1485 1484 1484 1482 1480 1479 1477 1471 1469 1469 1468 1467 1467 1466 1467 1466 1466 1467 1468 1471 1472 1475 1477 1479 1481 1482 1485 1487 1487 1486 1485 1486 1486 1488 1487 1482 1482 1484 1486 1489 1492 1496 1498 1500 1503 1506 1508 1509 1510 1511 1514 1516 1515 1515 1516 1519 1522 1525 1528 1529 1531 1533 1535 1537
1512 1511 1509 1508 1507 1506 1504 1503 1502 1501 1499 1498 1497 1496 1495 1493 1492 1491 1490 1489 1487 1486 1484 1484 1483 1482 1482 1480 1480 1478 1471 1468 1468 1467 1467 1467 1466 1466 1465 1464 1465 1466 1467 1470 1472 1475 1477 1478 1480 1481 1483 1484 1485 1485 1484 1488 1489 1485 1483 1481 1481 1484 1486 1489 1492 1496 1498 1501 1503 1506 1509 1511 1511 1513 1517 1518 1517 1517 1518 1520 1523 1525 1528 1529 1531 1532 1534 1536
1510 1509 1508 1507 1505 1504 1502 1501 1500 1498 1497 1496 1495 1494 1493 1491 1490 1489 1488 1487 1485 1484 1483 1482 1480 1480 1480 1478 1480 1477 1468 1466 1467 1466 1466 1466 1466 1465 1464 1464 1464 1465 1467 1469 1472 1474 1476 1478 1479 1480 1482 1482 1483 1484 1483 1487 1486 1481 1482 1481 1482 1484 1487 1489 1493 1496 1499 1501 1502 1505 1510 1511 1512 1515 1518 1518 1517 1518 1519 1521 1524 1525 1527 1529 1531 1533 1534 1536
1508 1507 1506 1505 1504 1502 1500 1499 1498 1497 1495 1494 1493 1492 1491 1489 1488 1487 1486 1484 1483 1482 1480 1479 1478 1477 1477 1476 1477 1473 1466 1466 1466 1465 1465 1465 1465 1465 1464 1464 1465 1466 1468 1469 1472 1474 1476 1478 1478 1480 1482 1482 1483 1483 1482 1482 1481 1480 1480 1484 1487 1487 1490 1492 1493 1497 1499 1503 1504 1504 1510 1513 1513 1515 1515 1514 1516 1517 1519 1521 1523 1525 1527 1528 1531 1533 1534 1535
1507 1505 1504 1503 1502 1500 1499 1497 1496 1495 1493 1492 1491 1490 1488 1487 1485 1484 1483 1482 1480 1479 1478 1477 1476 1474 1474 1473 1470 1466 1465 1466 1464 1463 1464 1464 1465 1465 1464 1464 1465 1466 1468 1470 1472 1474 1476 1477 1478 1479 1480 1481 1482 1483 1483 1479 1479 1480 1479 1488 1495 1492 1496 1496 1494 1497 1498 1503 1505 1506 1516 1520 1516 1514 1513 1513 1516 1517 1519 1521 1523 1525 1526 1528 1530 1532 1534 1535
1505 1504 1502 1501 1500 1498 1497 1495 1494 1493 1491 1490 1489 1488 1486 1484 1483 1482 1480 1479 1477 1476 1475 1474 1473 1472 1472 1468 1462 1462 1464 1463 1462 1462 1462 1463 1464 1464 1464 1464 1465 1466 1468 1470 1472 1474 1476 1477 1477 1478 1479 1480 1481 1482 1482 1478 1480 1483 1482 1490 1500 1503 1505 1499 1496 1499 1499 1503 1502 1505 1522 1525 1516 1513 1513 1514 1516 1517 1520 1522 1524 1525 1526 1528 1529 1531 1532 1534
1504 1502 1501 1499 1498 1496 1495 1493 1492 1491 1489 1488 1487 1485 1484 1482 1481 1479 1478 1477 1475 1474 1473 1472 1471 1470 1469 1463 1459 1462 1462 1460 1460 1461 1462 1462 1463 1464 1464 1464 1465 1466 1468 1470 1471 1473 1475 1476 1477 1477 1478 1479 1479 1479 1481 1481 1483 1487 1489 1494 1502 1511 1511 1499 1497 1500 1502 1506 1501 1503 1519 1520 1513 1512 1512 1514 1515 1515 1519 1521 1523 1525 1526 1527 1528 1530 1531 1533
1503 1501 1499 1498 1496 1494 1493 1491 1490 1488 1488 1486 1485 1483 1481 1479 1478 1477 1476 1474 1473 1472 1471 1470 1469 1469 1466 1460 1458 1460 1459 1458 1459 1459 1460 1461 1462 1464 1464 1464 1465 1466 1468 1469 1470 1472 1473 1475 1476 1476 1477 1477 1478 1481 1485 1487 1488 1488 1497 1507 1507 1510 1511 1501 1497 1499 1501 1505 1502 1506 1517 1517 1513 1512 1512 1514 1516 1515 1517 1520 1522 1524 1525 1527 1528 1529 1531 1532
1501 1500 1498 1497 1495 1493 1491 1489 1487 1486 1485 1484 1482 1481 1479 1477 1476 1475 1474 1472 1472 1471 1469 1469 1468 1468 1466 1459 1457 1459 1458 1458 1458 1458 1459 1459 1461 1462 1463 1464 1465 1466 1467 1468 1469 1471 1473 1474 1475 1475 1476 1478 1480 1484 1490 1496 1497 1493 1498 1510 1511 1509 1512 1507 1500 1497 1498 1502 1503 1507 1515 1517 1512 1511 1513 1515 1516 1517 1518 1520 1521 1523 1524 1525 1527 1528 1529 1532
1499 1498 1497 1495 1494 1492 1490 1488 1485 1484 1483 1482 1480 1479 1477 1475 1474 1473 1472 1471 1470 1468 1468 1468 1467 1467 1463 1457 1457 1457 1457 1457 1457 1457 1458 1458 1460 1461 1462 1463 1464 1465 1466 1467 1469 1469 1472 1472 1474 1476 1476 1479 1481 1484 1496 1506 1506 1501 1500 1506 1509 1509 1512 1511 1505 1499 1498 1503 1506 1506 1511 1514 1509 1508 1512 1514 1516 1517 1518 1520 1521 1522 1523 1524 1525 1527 1528 1530
1497 1496 1495 1493 1492 1491 1489 1487 1484 1482 1482 1481 1478 1476 1475 1473 1472 1471 1469 1469 1468 1467 1467 1465 1466 1468 1461 1454 1455 1456 1456 1457 1456 1457 1457 1457 1458 1459 1461 1462 1463 1464 1465 1466 1468 1468 1471 1471 1473 1477 1478 1481 1482 1485 1498 1505 1502 1502 1502 1504 1507 1508 1509 1509 1504 1497 1497 1503 1507 1508 1510 1512 1509 1508 1510 1512 1515 1516 1516 1518 1519 1520 1522 1523 1524 1525 1526 1527
1496 1494 1492 1491 1490 1490 1488 1486 1483 1481 1480 1479 1478 1475 1473 1472 1470 1469 1468 1467 1467 1465 1465 1464 1463 1465 1459 1452 1453 1455 1455 1456 1455 1456 1456 1456 1457 1458 1459 1461 1462 1463 1464 1466 1468 1467 1469 1471 1475 1480 1483 1484 1483 1484 1490 1492 1491 1494 1497 1500 1505 1508 1507 1503 1498 1492 1493 1502 1507 1508 1509 1510 1510 1509 1509 1510 1513 1515 1516 1517 1518 1520 1520 1522 1523 1524 1525 1525
1494 1493 1491 1489 1488 1488 1487 1485 1483 1481 1479 1477 1476 1474 1472 1472 1470 1468 1466 1465 1464 1463 1461 1461 1460 1458 1455 1451 1451 1453 1453 1454 1454 1454 1455 1455 1456 1457 1458 1460 1461 1463 1464 1466 1468 1466 1467 1474 1478 1479 1480 1480 1479 1480 1481 1483 1486 1489 1494 1498 1501 1506 1507 1502 1499 1493 1491 1501 1507 1505 1507 1509 1508 1507 1506 1508 1512 1514 1515 1516 1517 1518 1519 1520 1521 1522 1523 1523
1493 1491 1489 1487 1486 1486 1485 1483 1481 1480 1478 1477 1475 1474 1474 1475 1474 1473 1467 1459 1458 1460 1457 1455 1456 1453 1449 1449 1450 1451 1452 1451 1451 1452 1454 1454 1454 1456 1458 1459 1462 1465 1465 1464 1466 1465 1468 1475 1476 1473 1473 1474 1475 1477 1479 1483 1485 1487 1493 1497 1499 1502 1504 1501 1499 1496 1492 1500 1507 1505 1507 1510 1507 1506 1505 1507 1510 1510 1510 1512 1513 1514 1516 1518 1519 1520 1521 1521
1491 1489 1487 1486 1484 1484 1484 1482 1480 1479 1478 1477 1476 1475 1475 1476 1477 1477 1473 1461 1452 1454 1453 1450 1451 1447 1444 1446 1447 1449 1452 1450 1449 1449 1451 1453 1453 1455 1457 1459 1463 1465 1464 1464 1466 1469 1473 1475 1471 1468 1469 1471 1475 1477 1479 1482 1484 1488 1492 1497 1500 1499 1500 1500 1497 1496 1496 1501 1507 1507 1509 1511 1508 1506 1506 1505 1505 1504 1505 1508 1510 1512 1514 1516 1516 1517 1518 1520
1490 1487 1486 1484 1482 1482 1482 1480 1479 1478 1477 1477 1476 1476 1476 1476 1477 1476 1477 1469 1452 1445 1447 1445 1444 1441 1439 1441 1443 1446 1449 1448 1447 1446 1448 1451 1451 1453 1455 1458 1462 1464 1464 1465 1468 1473 1476 1472 1466 1466 1468 1471 1476 1478 1480 1482 1485 1489 1491 1495 1499 1496 1498 1502 1500 1499 1499 1501 1506 1507 1510 1512 1509 1509 1507 1504 1503 1504 1506 1509 1510 1511 1512 1512 1512 1513 1515 1517
1488 1486 1484 1481 1480 1480 1480 1479 1477 1477 1477 1476 1475 1476 1476 1476 1476 1474 1474 1470 1455 1442 1440 1441 1440 1437 1435 1437 1440 1442 1443 1443 1444 1443 1445 1448 1449 1451 1453 1455 1461 1464 1465 1465 1466 1470 1472 1466 1461 1465 1468 1470 1476 1479 1480 1484 1488 1489 1488 1491 1494 1493 1494 1496 1499 1500 1500 1503 1503 1507 1516 1515 1509 1511 1508 1504 1505 1506 1507 1508 1509 1510 1509 1510 1511 1512 1514 1514
1487 1485 1482 1480 1478 1477 1479 1478 1476 1477 1476 1475 1475 1475 1476 1475 1474 1473 1472 1471 1461 1444 1437 1438 1437 1434 1433 1435 1437 1437 1438 1439 1438 1440 1442 1444 1447 1450 1451 1453 1458 1464 1465 1465 1467 1470 1467 1462 1460 1465 1468 1470 1475 1479 1479 1482 1488 1490 1486 1484 1485 1489 1490 1491 1496 1501 1510 1514 1504 1506 1525 1522 1509 1509 1507 1504 1506 1505 1505 1505 1505 1506 1507 1509 1511 1511 1512 1512
1486 1484 1480 1479 1476 1474 1476 1476 1475 1476 1474 1474 1474 1473 1475 1473 1473 1473 1471 1476 1468 1445 1436 1438 1436 1434 1432 1434 1435 1437 1441 1437 1433 1437 1440 1441 1444 1447 1451 1453 1454 1460 1462 1463 1466 1467 1463 1460 1461 1464 1468 1471 1474 1478 1476 1477 1487 1491 1482 1477 1480 1485 1490 1492 1495 1502 1514 1516 1502 1500 1519 1522 1511 1506 1503 1502 1505 1503 1503 1502 1501 1502 1504 1505 1507 1507 1508 1510
1484 1483 1480 1478 1476 1473 1473 1474 1476 1475 1474 1475 1473 1473 1474 1472 1474 1472 1473 1485 1472 1443 1437 1437 1434 1434 1432 1432 1434 1437 1443 1436 1430 1434 1436 1439 1442 1443 1450 1453 1454 1457 1456 1461 1468 1464 1458 1460 1463 1464 1467 1471 1475 1476 1474 1474 1484 1487 1474 1472 1479 1483 1489 1492 1493 1499 1503 1504 1503 1502 1509 1519 1514 1501 1498 1500 1504 1505 1502 1499 1497 1498 1499 1500 1502 1503 1504 1506
1483 1482 1479 1477 1476 1474 1472 1473 1474 1473 1474 1474 1472 1474 1473 1471 1475 1471 1479 1494 1468 1437 1436 1435 1431 1433 1431 1432 1433 1433 1435 1431 1431 1433 1431 1437 1440 1440 1447 1450 1452 1455 1451 1459 1469 1462 1455 1459 1462 1463 1467 1471 1471 1470 1468 1471 1478 1477 1469 1471 1477 1480 1485 1488 1491 1497 1497 1502 1514 1512 1509 1521 1516 1498 1496 1500 1503 1505 1499 1494 1492 1491 1493 1494 1496 1498 1500 1502
1481 1480 1478 1475 1474 1474 1472 1472 1473 1472 1472 1471 1471 1473 1470 1472 1473 1470 1485 1490 1456 1434 1436 1433 1431 1433 1431 1433 1434 1431 1431 1429 1431 1431 1429 1435 1438 1439 1444 1445 1447 1452 1451 1454 1463 1459 1454 1455 1456 1459 1465 1467 1465 1463 1463 1467 1472 1468 1467 1472 1476 1481 1485 1487 1492 1496 1500 1509 1518 1513 1508 1519 1515 1498 1499 1504 1503 1500 1490 1484 1484 1484 1487 1489 1490 1493 1495 1497
1479 1478 1477 1474 1472 1472 1470 1470 1471 1471 1470 1470 1470 1470 1469 1471 1471 1480 1496 1483 1451 1439 1436 1432 1433 1433 1432 1435 1435 1433 1433 1431 1428 1427 1430 1432 1435 1437 1440 1442 1444 1450 1452 1453 1456 1456 1451 1450 1451 1454 1458 1458 1458 1460 1460 1462 1465 1463 1468 1475 1480 1487 1488 1491 1494 1495 1509 1519 1513 1505 1503 1511 1512 1499 1497 1498 1488 1481 1478 1477 1478 1480 1483 1484 1485 1487 1489 1492
1477 1476 1475 1472 1470 1469 1467 1468 1469 1468 1468 1468 1468 1468 1469 1470 1473 1489 1494 1468 1448 1442 1434 1434 1436 1432 1433 1436 1436 1434 1433 1432 1427 1428 1432 1432 1436 1439 1440 1445 1447 1451 1457 1457 1457 1456 1453 1453 1453 1449 1449 1450 1454 1460 1460 1459 1460 1463 1470 1476 1484 1493 1493 1499 1502 1501 1519 1525 1505 1496 1500 1510 1515 1499 1486 1482 1468 1464 1469 1470 1471 1473 1475 1477 1478 1481 1483 1487
1474 1473 1472 1471 1469 1466 1466 1466 1465 1465 1466 1467 1467 1466 1468 1474 1479 1483 1474 1456 1450 1443 1435 1438 1437 1433 1435 1434 1435 1434 1432 1432 1429 1428 1432 1434 1439 1440 1440 1445 1449 1457 1466 1463 1460 1460 1456 1453 1451 1448 1446 1446 1453 1462 1464 1463 1463 1467 1473 1478 1490 1503 1506 1512 1516 1515 1523 1517 1496 1494 1502 1510 1510 1488 1475 1475 1466 1462 1462 1460 1460 1463 1466 1469 1472 1475 1479 1483
1471 1469 1469 1468 1466 1463 1463 1464 1462 1462 1463 1465 1467 1465 1468 1478 1480 1470 1460 1454 1448 1439 1435 1439 1436 1434 1436 1434 1434 1432 1430 1432 1428 1429 1431 1432 1439 1440 1438 1439 1440 1450 1461 1461 1462 1463 1462 1456 1449 1450 1449 1444 1448 1460 1467 1468 1468 1470 1474 1479 1491 1505 1515 1522 1526 1527 1522 1507 1494 1495 1501 1508 1502 1480 1467 1467 1461 1456 1455 1453 1454 1458 1461 1463 1466 1470 1475 1479
1468 1466 1464 1463 1463 1460 1459 1460 1459 1459 1461 1463 1465 1466 1472 1479 1471 1459 1455 1450 1441 1436 1437 1438 1436 1435 1435 1435 1434 1430 1431 1431 1426 1429 1432 1434 1441 1442 1440 1440 1438 1442 1450 1457 1461 1462 1468 1465 1451 1449 1449 1443 1444 1450 1456 1460 1465 1467 1466 1471 1481 1489 1500 1511 1516 1516 1509 1502 1501 1503 1502 1504 1495 1472 1457 1452 1450 1451 1452 1451 1454 1458 1460 1461 1464 1469 1472 1474
1464 1463 1461 1459 1459 1457 1455 1456 1456 1456 1458 1461 1464 1467 1472 1472 1463 1456 1453 1445 1440 1439 1437 1436 1437 1439 1437 1435 1432 1428 1431 1432 1426 1428 1433 1435 1440 1440 1439 1438 1438 1440 1446 1456 1459 1457 1465 1463 1446 1442 1441 1439 1443 1444 1444 1452 1463 1465 1461 1467 1474 1472 1477 1490 1498 1496 1493 1499 1506 1504 1497 1489 1476 1459 1449 1449 1449 1449 1449 1451 1455 1456 1456 1460 1464 1467 1469 1471
1460 1460 1458 1456 1455 1454 1453 1453 1453 1454 1455 1458 1463 1466 1463 1457 1453 1450 1445 1440 1441 1441 1439 1439 1440 1443 1442 1437 1434 1431 1430 1431 1430 1431 1433 1434 1436 1435 1435 1433 1432 1435 1439 1449 1455 1454 1461 1458 1442 1439 1440 1437 1440 1440 1439 1447 1458 1463 1465 1467 1466 1461 1465 1480 1493 1493 1493 1500 1502 1498 1491 1480 1474 1463 1450 1449 1450 1447 1447 1448 1449 1450 1452 1457 1459 1461 1464 1467
1457 1455 1455 1453 1451 1451 1450 1450 1450 1451 1453 1456 1459 1459 1453 1447 1444 1442 1439 1437 1439 1439 1442 1446 1442 1442 1443 1439 1436 1435 1431 1431 1433 1434 1435 1436 1434 1431 1432 1430 1428 1430 1430 1436 1445 1446 1452 1453 1441 1438 1442 1437 1434 1437 1437 1437 1445 1457 1463 1460 1458 1463 1465 1473 1488 1499 1504 1505 1498 1494 1489 1481 1484 1476 1455 1451 1454 1448 1445 1444 1444 1448 1451 1453 1454 1455 1459 1461
1455 1453 1452 1450 1449 1447 1446 1446 1446 1448 1451 1454 1455 1451 1447 1444 1439 1437 1437 1436 1438 1438 1442 1448 1443 1438 1441 1441 1438 1435 1434 1437 1437 1436 1437 1437 1432 1426 1427 1428 1425 1425 1425 1428 1437 1438 1443 1452 1445 1435 1439 1436 1431 1439 1444 1438 1437 1445 1449 1447 1454 1469 1474 1473 1483 1495 1503 1506 1497 1492 1490 1483 1482 1474 1457 1453 1454 1447 1442 1441 1442 1446 1446 1446 1448 1450 1453 1457
1456 1453 1451 1449 1447 1444 1442 1443 1443 1445 1449 1453 1454 1449 1444 1440 1436 1435 1436 1435 1437 1439 1441 1443 1440 1438 1439 1440 1439 1435 1435 1438 1438 1438 1438 1437 1432 1424 1421 1424 1423 1422 1422 1424 1433 1435 1438 1450 1449 1436 1434 1435 1434 1441 1447 1445 1441 1441 1444 1447 1450 1459 1465 1468 1473 1477 1485 1498 1496 1492 1494 1486 1471 1461 1452 1448 1446 1441 1440 1440 1439 1440 1439 1439 1441 1443 1447 1451
1457 1454 1452 1449 1447 1444 1443 1443 1444 1446 1446 1447 1449 1445 1440 1438 1435 1434 1434 1434 1435 1437 1438 1438 1437 1439 1438 1436 1437 1436 1435 1435 1435 1437 1437 1434 1431 1425 1419 1419 1421 1420 1420 1421 1427 1430 1433 1444 1449 1439 1434 1438 1439 1438 1438 1441 1445 1447 1450 1454 1453 1453 1457 1461 1466 1468 1470 1483 1490 1490 1491 1478 1455 1446 1444 1439 1436 1435 1434 1434 1434 1432 1432 1433 1435 1438 1442 1446
1457 1455 1452 1449 1448 1447 1447 1446 1446 1445 1443 1443 1443 1441 1438 1436 1434 1433 1433 1433 1433 1433 1434 1435 1435 1437 1437 1437 1437 1435 1434 1434 1433 1434 1435 1431 1430 1427 1418 1414 1416 1418 1421 1425 1426 1427 1432 1439 1444 1441 1438 1439 1436 1428 1427 1430 1435 1441 1446 1450 1450 1451 1457 1464 1472 1470 1465 1470 1476 1478 1479 1464 1440 1435 1436 1432 1430 1428 1427 1428 1428 1426 1426 1428 1431 1434 1437 1441
1459 1456 1452 1449 1448 1447 1448 1447 1445 1444 1442 1440 1439 1437 1436 1434 1433 1432 1431 1431 1432 1431 1431 1432 1432 1434 1434 1435 1435 1434 1434 1433 1431 1431 1430 1426 1426 1423 1415 1410 1411 1413 1418 1424 1422 1418 1422 1431 1439 1440 1435 1433 1428 1422 1424 1425 1426 1431 1435 1438 1441 1444 1450 1461 1470 1469 1464 1468 1470 1470 1471 1454 1432 1428 1430 1427 1428 1427 1426 1427 1426 1424 1424 1426 1429 1432 1434 1437
1458 1455 1449 1448 1447 1447 1449 1447 1444 1443 1441 1437 1435 1434 1433 1433 1432 1432 1430 1430 1430 1430 1430 1430 1429 1430 1430 1430 1431 1431 1432 1431 1427 1425 1424 1422 1420 1415 1410 1408 1409 1412 1415 1419 1418 1415 1418 1427 1435 1438 1432 1427 1423 1421 1422 1423 1425 1431 1432 1431 1435 1437 1439 1445 1453 1455 1458 1464 1466 1471 1473 1453 1429 1427 1429 1426 1428 1427 1426 1425 1424 1423 1423 1426 1429 1430 1433 1436
1457 1452 1447 1447 1447 1447 1449 1447 1443 1442 1440 1437 1435 1434 1432 1431 1431 1431 1430 1430 1429 1428 1429 1427 1426 1427 1426 1426 1427 1426 1427 1428 1425 1420 1420 1420 1415 1409 1407 1406 1408 1411 1411 1412 1412 1413 1421 1427 1431 1440 1444 1440 1436 1433 1430 1427 1428 1430 1429 1429 1430 1432 1435 1440 1446 1450 1454 1456 1455 1463 1468 1450 1429 1427 1429 1427 1427 1426 1424 1423 1422 1423 1423 1424 1427 1429 1431 1434
1457 1452 1447 1447 1447 1447 1447 1445 1444 1443 1441 1439 1437 1434 1432 1430 1428 1428 1428 1427 1426 1426 1427 1425 1423 1423 1422 1423 1424 1422 1421 1424 1423 1419 1417 1417 1412 1405 1403 1404 1406 1406 1403 1401 1401 1405 1415 1421 1423 1436 1450 1453 1449 1442 1434 1429 1428 1427 1426 1426 1427 1429 1433 1439 1446 1452 1454 1454 1452 1452 1452 1442 1430 1427 1428 1426 1425 1423 1421 1421 1421 1422 1422 1423 1425 1427 1428 1431
1461 1456 1450 1447 1446 1445 1446 1444 1444 1445 1443 1443 1440 1433 1431 1430 1426 1424 1425 1424 1423 1422 1423 1423 1421 1422 1422 1421 1422 1422 1418 1418 1420 1419 1416 1415 1411 1405 1401 1401 1402 1401 1398 1396 1397 1402 1411 1415 1415 1421 1429 1433 1432 1427 1422 1421 1425 1426 1424 1423 1425 1426 1427 1432 1442 1447 1447 1451 1452 1444 1437 1436 1431 1427 1426 1423 1422 1420 1419 1420 1420 1419 1419 1420 1422 1424 1426 1429
1463 1460 1455 1452 1449 1445 1445 1444 1445 1446 1445 1445 1442 1434 1431 1430 1426 1423 1422 1421 1420 1420 1420 1420 1419 1421 1421 1420 1421 1421 1418 1416 1417 1416 1415 1413 1410 1405 1401 1400 1400 1400 1396 1394 1395 1401 1409 1413 1413 1413 1414 1413 1412 1412 1414 1416 1417 1419 1420 1419 1420 1422 1425 1430 1437 1437 1437 1447 1450 1439 1434 1435 1430 1423 1421 1419 1418 1419 1418 1417 1416 1415 1416 1417 1419 1422 1426 1429
1462 1459 1457 1457 1455 1450 1447 1446 1445 1446 1445 1445 1442 1435 1432 1430 1427 1426 1422 1419 1418 1417 1418 1418 1416 1417 1416 1416 1418 1418 1416 1417 1417 1414 1412 1411 1408 1407 1403 1399 1398 1397 1395 1395 1394 1397 1406 1410 1409 1411 1411 1407 1405 1407 1411 1413 1412 1412 1413 1415 1416 1419 1424 1428 1429 1428 1430 1436 1436 1431 1432 1432 1424 1417 1415 1412 1411 1411 1410 1410 1411 1413 1415 1416 1418 1421 1424 1427
1462 1459 1457 1457 1456 1452 1450 1448 1447 1446 1444 1443 1441 1436 1433 1430 1428 1427 1424 1422 1419 1416 1417 1418 1415 1414 1413 1413 1415 1416 1415 1417 1417 1413 1409 1408 1407 1407 1406 1403 1399 1394 1395 1398 1397 1397 1403 1406 1404 1407 1409 1406 1405 1406 1408 1411 1412 1411 1410 1411 1411 1415 1419 1420 1421 1422 1424 1424 1421 1422 1427 1424 1415 1410 1407 1404 1403 1404 1405 1408 1410 1411 1413 1414 1416 1418 1420 1423
1462 1461 1458 1458 1456 1452 1450 1448 1447 1445 1443 1442 1440 1436 1433 1431 1429 1428 1427 1424 1421 1416 1414 1417 1415 1413 1413 1412 1413 1413 1409 1408 1409 1407 1405 1406 1405 1404 1406 1406 1401 1397 1397 1400 1399 1399 1403 1407 1405 1405 1409 1407 1403 1403 1407 1410 1412 1412 1409 1408 1409 1413 1416 1418 1418 1420 1423 1424 1420 1421 1427 1422 1409 1403 1402 1401 1403 1405 1406 1408 1408 1409 1410 1412 1415 1416 1416 1419
1462 1461 1460 1460 1457 1452 1449 1447 1446 1446 1444 1441 1439 1437 1435 1433 1431 1432 1428 1421 1419 1416 1414 1416 1416 1413 1411 1410 1409 1408 1405 1403 1404 1403 1402 1403 1401 1399 1399 1400 1401 1402 1401 1400 1400 1399 1402 1407 1406 1407 1413 1410 1400 1401 1405 1406 1409 1412 1410 1408 1409 1412 1413 1414 1413 1414 1416 1419 1421 1424 1427 1419 1404 1400 1401 1401 1402 1404 1405 1405 1406 1407 1408 1410 1412 1413 1414 1417
1461 1460 1460 1460 1457 1452 1450 1448 1447 1446 1443 1439 1438 1439 1438 1435 1433 1434 1429 1418 1414 1415 1414 1414 1415 1413 1411 1408 1406 1406 1404 1402 1400 1399 1399 1400 1398 1395 1394 1394 1398 1403 1404 1402 1401 1401 1402 1404 1405 1410 1416 1410 1399 1399 1401 1405 1416 1419 1408 1401 1404 1407 1407 1407 1407 1407 1406 1409 1416 1419 1415 1405 1397 1398 1402 1402 1402 1402 1402 1401 1402 1403 1404 1406 1408 1410 1413 1416